Weather History for Pontiac, MI

Change the Weather History Date:

Wednesday, October 3, 2012

  Actual Average Record
Temperature  
Mean Temperature 60 °F -  
Max Temperature 66 °F 62 °F 82 °F (2005)
Min Temperature 57 °F 43 °F 35 °F (1996)
Degree Days  
Heating Degree Days 4    
Growing Degree Days 10 (Base 50)    
Moisture  
Dew Point 56 °F    
Average Humidity 84    
Maximum Humidity 100    
Minimum Humidity 65    
Precipitation  
Precipitation 0.03 in - - ()
Sea Level Pressure  
Sea Level Pressure 29.99 in    
Wind  
Wind Speed 4 mph (South)    
Max Wind Speed 12 mph    
Max Gust Speed -    
Visibility 8 miles    
Events Rain    
Averages and records for this station are not official NWS values.
T = Trace of Precipitation, MM = Missing Value Source: NWS Daily Summary

Daily Weather History Graph

Daily Weather History Graph

Search for Another Location

Airport:

Trip Planner

Search our weather history database for the weather conditions in past years. The results will help you decide how hot, cold, wet, or windy it might be!

Date:

Astronomy

Oct. 03, 2012 Rise Set
Actual Time 7:33 AM EDT 7:10 PM EDT
Civil Twilight 7:05 AM EDT 7:38 PM EDT
Nautical Twilight 6:32 AM EDT 8:11 PM EDT
Astronomical Twilight 5:59 AM EDT 8:44 PM EDT
Moon 8:56 PM EDT (10/3) 11:01 AM EDT (10/3)
Length of Visible Light 12h 33m
Length of Day
11h 37m
Waning Gibbous, 89% of the Moon is Illuminated
Oct 3
Waning Gibbous
Oct 8
Last Quarter
Oct 15
New
Oct 21
First Quarter
Oct 29
Full

Hourly Weather History & Observations

Time (EDT) Temp. Dew Point Humidity Pressure Visibility Wind Dir Wind Speed Gust Speed Precip Events Conditions
12:53 AM 57.0 °F 54.0 °F 89% 29.91 in 10.0 mi NW 3.5 mph - 0.01 in   Overcast
1:08 AM 57.2 °F 53.6 °F 88% 29.91 in 10.0 mi North 3.5 mph - N/A   Overcast
1:36 AM 57.2 °F 55.4 °F 94% 29.91 in 10.0 mi Calm Calm - N/A   Overcast
1:53 AM 57.0 °F 55.0 °F 93% 29.90 in 10.0 mi Calm Calm - N/A   Overcast
2:43 AM 57.2 °F 55.4 °F 94% 29.91 in 10.0 mi NNE 3.5 mph - N/A   Overcast
2:53 AM 57.9 °F 55.9 °F 93% 29.91 in 10.0 mi NNE 3.5 mph - N/A   Overcast
3:53 AM 57.9 °F 55.9 °F 93% 29.91 in 10.0 mi NE 4.6 mph - N/A   Overcast
4:53 AM 59.0 °F 55.9 °F 90% 29.92 in 10.0 mi Calm Calm - N/A   Overcast
5:53 AM 59.0 °F 57.0 °F 93% 29.93 in 8.0 mi Calm Calm - N/A   Overcast
6:53 AM 59.0 °F 57.0 °F 93% 29.95 in 4.0 mi Calm Calm - 0.00 in   Overcast
7:22 AM 59.0 °F 57.2 °F 94% 29.96 in 2.5 mi Calm Calm - N/A   Overcast
7:53 AM 57.9 °F 57.9 °F 100% 29.97 in 1.8 mi Calm Calm - N/A   Overcast
8:30 AM 59.0 °F 57.2 °F 94% 29.98 in 2.0 mi SE 3.5 mph - 0.02 in Rain Light Rain
8:32 AM 59.0 °F 57.2 °F 94% 29.97 in 1.8 mi SE 3.5 mph - 0.02 in   Overcast
8:53 AM 59.0 °F 57.9 °F 96% 29.98 in 1.8 mi SSE 4.6 mph - 0.02 in   Overcast
9:22 AM 59.0 °F 57.2 °F 94% 29.99 in 2.5 mi Calm Calm - N/A   Overcast
9:53 AM 60.1 °F 59.0 °F 96% 29.99 in 2.5 mi South 4.6 mph - 0.00 in   Overcast
10:18 AM 60.8 °F 60.8 °F 100% 29.99 in 3.0 mi Variable 3.5 mph - N/A   Overcast
10:27 AM 62.6 °F 60.8 °F 94% 29.99 in 2.5 mi Calm Calm - N/A   Overcast
10:43 AM 62.6 °F 59.0 °F 88% 30.00 in 3.0 mi Variable 4.6 mph - N/A   Overcast
10:49 AM 62.6 °F 59.0 °F 88% 29.99 in 6.0 mi SW 5.8 mph - N/A   Overcast
10:53 AM 62.6 °F 59.0 °F 88% 30.00 in 6.0 mi SSW 6.9 mph - N/A   Overcast
11:53 AM 63.0 °F 55.9 °F 78% 29.99 in 10.0 mi SW 6.9 mph - N/A   Overcast
12:27 PM 64.4 °F 57.2 °F 77% 30.00 in 10.0 mi South 6.9 mph - N/A   Overcast
12:53 PM 64.9 °F 57.0 °F 75% 29.99 in 10.0 mi Variable 3.5 mph - N/A   Overcast
1:53 PM 64.0 °F 55.0 °F 73% 29.99 in 10.0 mi SW 8.1 mph - N/A   Overcast
2:19 PM 64.4 °F 55.4 °F 73% 30.00 in 10.0 mi SSW 8.1 mph - N/A   Overcast
2:53 PM 64.9 °F 55.0 °F 70% 30.00 in 10.0 mi SW 4.6 mph - N/A   Overcast
3:08 PM 64.4 °F 55.4 °F 73% 30.00 in 10.0 mi South 4.6 mph - N/A   Overcast
3:30 PM 64.4 °F 53.6 °F 68% 30.00 in 10.0 mi SSW 9.2 mph - N/A   Overcast
3:53 PM 64.9 °F 53.1 °F 65% 29.99 in 10.0 mi SSW 8.1 mph - N/A   Overcast
4:53 PM 63.0 °F 52.0 °F 67% 30.01 in 10.0 mi South 11.5 mph - N/A   Overcast
5:53 PM 62.1 °F 53.1 °F 72% 30.02 in 10.0 mi South 8.1 mph - 0.00 in Rain Light Rain
6:12 PM 62.6 °F 53.6 °F 72% 30.03 in 10.0 mi SSW 6.9 mph - N/A   Overcast
6:44 PM 60.8 °F 53.6 °F 77% 30.04 in 10.0 mi South 4.6 mph - N/A   Overcast
6:53 PM 61.0 °F 53.1 °F 75% 30.04 in 10.0 mi South 4.6 mph - N/A   Overcast
7:53 PM 61.0 °F 53.1 °F 75% 30.05 in 10.0 mi South 5.8 mph - N/A   Overcast
8:13 PM 60.8 °F 53.6 °F 77% 30.05 in 10.0 mi South 4.6 mph - N/A   Overcast
8:41 PM 60.8 °F 53.6 °F 77% 30.05 in 10.0 mi South 5.8 mph - N/A   Mostly Cloudy
8:53 PM 60.1 °F 54.0 °F 80% 30.05 in 10.0 mi South 3.5 mph - 0.00 in   Overcast
9:53 PM 60.1 °F 54.0 °F 80% 30.06 in 10.0 mi South 5.8 mph - N/A   Overcast
10:53 PM 60.1 °F 54.0 °F 80% 30.06 in 10.0 mi South 4.6 mph - N/A   Overcast
11:53 PM 60.1 °F 54.0 °F 80% 30.06 in 10.0 mi SSE 3.5 mph - N/A   Mostly Cloudy